Time,TemperatureF,DewpointF,PressureIn,WindDirection,WindDirectionDegrees,WindSpeedMPH,WindSpeedGustMPH,Humidity,HourlyPrecipIn,Conditions,Clouds,dailyrainin,SolarRadiationWatts/m^2,SoftwareType,DateUTC
2013-07-07 00:02:00,76.6,63.5,29.94,SSE,167,0.0,0.0,64,0.00,,CLR,0.00,0.00,VWS V14.01,2013-07-07 05:02:00,
2013-07-07 00:07:00,76.6,63.5,29.94,SSE,167,0.0,0.0,64,0.00,,CLR,0.00,0.00,VWS V14.01,2013-07-07 05:07:00,
2013-07-07 00:12:00,76.4,63.3,29.94,SSE,167,0.0,0.0,64,0.00,,CLR,0.00,0.00,VWS V14.01,2013-07-07 05:12:00,
2013-07-07 00:17:00,76.2,63.6,29.94,SSE,167,0.0,0.0,65,0.00,,CLR,0.00,0.00,VWS V14.01,2013-07-07 05:17:00,
2013-07-07 00:22:00,76.1,63.5,29.94,SSE,167,0.0,0.0,65,0.00,,CLR,0.00,0.00,VWS V14.01,2013-07-07 05:22:00,
2013-07-07 00:26:00,76.1,63.9,29.94,SSE,167,0.0,0.0,66,0.00,,CLR,0.00,0.00,VWS V14.01,2013-07-07 05:26:00,
2013-07-07 00:31:00,75.9,63.7,29.95,SSE,167,0.0,0.0,66,0.00,,CLR,0.00,0.00,VWS V14.01,2013-07-07 05:31:00,
2013-07-07 00:36:00,75.7,63.5,29.95,SSE,167,0.0,0.0,66,0.00,,CLR,0.00,0.00,VWS V14.01,2013-07-07 05:36:00,
2013-07-07 00:41:00,75.5,63.8,29.95,SSE,167,0.0,0.0,67,0.00,,CLR,0.00,0.00,VWS V14.01,2013-07-07 05:41:00,
2013-07-07 00:46:00,75.5,63.8,29.94,SSE,167,0.0,0.0,67,0.00,,CLR,0.00,0.00,VWS V14.01,2013-07-07 05:46:00,
2013-07-07 00:51:00,75.3,64.0,29.94,SSE,167,0.0,0.0,68,0.00,,CLR,0.00,0.00,VWS V14.01,2013-07-07 05:51:00,
2013-07-07 00:56:00,75.2,63.9,29.94,SSE,167,0.0,0.0,68,0.00,,CLR,0.00,0.00,VWS V14.01,2013-07-07 05:56:00,
2013-07-07 01:01:00,75.2,63.9,29.93,SSE,167,0.0,0.0,68,0.00,,CLR,0.00,0.00,VWS V14.01,2013-07-07 06:01:00,
2013-07-07 01:06:00,75.0,64.2,29.93,SSE,167,0.0,0.0,69,0.00,,CLR,0.00,0.00,VWS V14.01,2013-07-07 06:06:00,
2013-07-07 01:11:00,75.0,64.2,29.93,SSE,167,0.0,0.0,69,0.00,,CLR,0.00,0.00,VWS V14.01,2013-07-07 06:11:00,
2013-07-07 01:16:00,74.8,64.0,29.93,SSE,167,0.0,0.0,69,0.00,,CLR,0.00,0.00,VWS V14.01,2013-07-07 06:16:00,
2013-07-07 01:21:00,74.6,63.8,29.93,SSE,167,0.0,0.0,69,0.00,,CLR,0.00,0.00,VWS V14.01,2013-07-07 06:21:00,
2013-07-07 01:26:00,74.6,63.8,29.93,SSE,167,0.0,0.0,69,0.00,,CLR,0.00,0.00,VWS V14.01,2013-07-07 06:26:00,
2013-07-07 01:31:00,74.5,63.7,29.93,SSE,167,0.0,0.0,69,0.00,,CLR,0.00,0.00,VWS V14.01,2013-07-07 06:31:00,
2013-07-07 01:36:00,74.5,63.7,29.93,SSE,167,0.0,0.0,69,0.00,,CLR,0.00,0.00,VWS V14.01,2013-07-07 06:36:00,
2013-07-07 01:41:00,74.3,63.9,29.93,SSE,167,0.0,0.0,70,0.00,,CLR,0.00,0.00,VWS V14.01,2013-07-07 06:41:00,
2013-07-07 01:46:00,74.3,63.9,29.93,SSE,167,0.0,0.0,70,0.00,,CLR,0.00,0.00,VWS V14.01,2013-07-07 06:46:00,
2013-07-07 01:51:00,74.1,64.1,29.93,SSE,167,0.0,0.0,71,0.00,,CLR,0.00,0.00,VWS V14.01,2013-07-07 06:51:00,
2013-07-07 01:56:00,73.9,63.9,29.93,SSE,167,0.0,0.0,71,0.00,,CLR,0.00,0.00,VWS V14.01,2013-07-07 06:56:00,
2013-07-07 02:01:00,73.9,63.9,29.93,SSE,167,0.0,0.0,71,0.00,,CLR,0.00,0.00,VWS V14.01,2013-07-07 07:01:00,
2013-07-07 02:06:00,73.8,63.8,29.93,SSE,167,0.0,0.0,71,0.00,,CLR,0.00,0.00,VWS V14.01,2013-07-07 07:06:00,
2013-07-07 02:11:00,73.8,63.8,29.93,SSE,167,0.0,0.0,71,0.00,,CLR,0.00,0.00,VWS V14.01,2013-07-07 07:11:00,
2013-07-07 02:16:00,73.6,63.6,29.92,SSE,167,0.0,0.0,71,0.00,,CLR,0.00,0.00,VWS V14.01,2013-07-07 07:16:00,
2013-07-07 02:21:00,73.6,63.6,29.92,SSE,167,0.0,0.0,71,0.00,,CLR,0.00,0.00,VWS V14.01,2013-07-07 07:21:00,
2013-07-07 02:26:00,73.6,63.6,29.92,SSE,167,0.0,0.0,71,0.00,,CLR,0.00,0.00,VWS V14.01,2013-07-07 07:26:00,
2013-07-07 02:31:00,73.6,63.6,29.92,SSE,167,0.0,0.0,71,0.00,,CLR,0.00,0.00,VWS V14.01,2013-07-07 07:31:00,
2013-07-07 02:36:00,73.6,63.6,29.92,SSE,167,0.0,0.0,71,0.00,,CLR,0.00,0.00,VWS V14.01,2013-07-07 07:36:00,
2013-07-07 02:41:00,73.6,63.6,29.92,SSE,167,0.0,0.0,71,0.00,,CLR,0.00,0.00,VWS V14.01,2013-07-07 07:41:00,
2013-07-07 02:46:00,73.6,63.6,29.92,SSE,167,0.0,0.0,71,0.00,,CLR,0.00,0.00,VWS V14.01,2013-07-07 07:46:00,
2013-07-07 02:51:00,73.6,63.6,29.92,SSE,167,0.0,0.0,71,0.00,,CLR,0.00,0.00,VWS V14.01,2013-07-07 07:51:00,
2013-07-07 02:56:00,73.6,63.6,29.92,SSE,167,0.0,0.0,71,0.00,,CLR,0.00,0.00,VWS V14.01,2013-07-07 07:56:00,
2013-07-07 03:01:00,73.6,63.2,29.92,SSE,167,0.0,0.0,70,0.00,,CLR,0.00,0.00,VWS V14.01,2013-07-07 08:01:00,
2013-07-07 03:06:00,73.6,63.2,29.92,SSE,167,0.0,0.0,70,0.00,,CLR,0.00,0.00,VWS V14.01,2013-07-07 08:06:00,
2013-07-07 03:11:00,73.8,63.4,29.92,SSE,167,0.0,0.0,70,0.00,,CLR,0.00,0.00,VWS V14.01,2013-07-07 08:11:00,
2013-07-07 03:16:00,73.8,63.0,29.92,SSE,167,0.0,0.0,69,0.00,,CLR,0.00,0.00,VWS V14.01,2013-07-07 08:16:00,
2013-07-07 03:21:00,73.8,63.0,29.92,SSE,167,0.0,0.0,69,0.00,,CLR,0.00,0.00,VWS V14.01,2013-07-07 08:21:00,
2013-07-07 03:26:00,73.8,63.0,29.92,SSE,167,0.0,0.0,69,0.00,,CLR,0.00,0.00,VWS V14.01,2013-07-07 08:26:00,
2013-07-07 03:31:00,73.9,63.1,29.92,SSE,167,0.0,0.0,69,0.00,,CLR,0.00,0.00,VWS V14.01,2013-07-07 08:31:00,
2013-07-07 03:36:00,73.9,62.7,29.92,SSE,167,0.0,0.0,68,0.00,,CLR,0.00,0.00,VWS V14.01,2013-07-07 08:36:00,
2013-07-07 03:41:00,73.9,62.7,29.92,SSE,167,0.0,0.0,68,0.00,,CLR,0.00,0.00,VWS V14.01,2013-07-07 08:41:00,
2013-07-07 03:46:00,73.9,62.7,29.92,SSE,167,0.0,0.0,68,0.00,,CLR,0.00,0.00,VWS V14.01,2013-07-07 08:46:00,
2013-07-07 03:51:00,73.9,62.7,29.92,SSE,167,0.0,0.0,68,0.00,,CLR,0.00,0.00,VWS V14.01,2013-07-07 08:51:00,
2013-07-07 03:56:00,73.9,62.7,29.92,SSE,167,0.0,0.0,68,0.00,,CLR,0.00,0.00,VWS V14.01,2013-07-07 08:56:00,
2013-07-07 04:01:00,73.9,62.7,29.92,SSE,167,0.0,0.0,68,0.00,,CLR,0.00,0.00,VWS V14.01,2013-07-07 09:01:00,
2013-07-07 04:06:00,73.8,63.0,29.92,SSE,167,0.0,0.0,69,0.00,,CLR,0.00,0.00,VWS V14.01,2013-07-07 09:06:00,
2013-07-07 04:11:00,73.8,63.0,29.92,SSE,167,0.0,0.0,69,0.00,,CLR,0.00,0.00,VWS V14.01,2013-07-07 09:11:00,
2013-07-07 04:16:00,73.8,63.0,29.92,SSE,167,0.0,0.0,69,0.00,,CLR,0.00,0.00,VWS V14.01,2013-07-07 09:16:00,
2013-07-07 04:21:00,73.8,63.0,29.92,SSE,167,0.0,0.0,69,0.00,,CLR,0.00,0.00,VWS V14.01,2013-07-07 09:21:00,
2013-07-07 04:26:00,73.6,62.8,29.92,SSE,167,0.0,0.0,69,0.00,,CLR,0.00,0.00,VWS V14.01,2013-07-07 09:26:00,
2013-07-07 04:31:00,73.6,62.8,29.92,SSE,167,0.0,0.0,69,0.00,,CLR,0.00,0.00,VWS V14.01,2013-07-07 09:31:00,
2013-07-07 04:36:00,73.6,62.8,29.92,SSE,167,0.0,0.0,69,0.00,,CLR,0.00,0.00,VWS V14.01,2013-07-07 09:36:00,
2013-07-07 04:41:00,73.6,62.8,29.92,SSE,167,0.0,0.0,69,0.00,,CLR,0.00,0.00,VWS V14.01,2013-07-07 09:41:00,
2013-07-07 04:46:00,73.4,62.6,29.93,SSE,167,0.0,0.0,69,0.00,,CLR,0.00,0.00,VWS V14.01,2013-07-07 09:46:00,
2013-07-07 04:51:00,73.4,63.0,29.93,SSE,167,0.0,0.0,70,0.00,,CLR,0.00,0.00,VWS V14.01,2013-07-07 09:51:00,
2013-07-07 04:56:00,73.4,63.0,29.93,SSE,167,0.0,0.0,70,0.00,,CLR,0.00,0.00,VWS V14.01,2013-07-07 09:56:00,
2013-07-07 05:01:00,73.4,63.0,29.93,SSE,167,0.0,0.0,70,0.00,,CLR,0.00,0.00,VWS V14.01,2013-07-07 10:01:00,
2013-07-07 05:06:00,73.2,62.8,29.93,SSE,167,0.0,0.0,70,0.00,,CLR,0.00,0.00,VWS V14.01,2013-07-07 10:06:00,
2013-07-07 05:11:00,73.2,62.8,29.93,SSE,167,0.0,0.0,70,0.00,,CLR,0.00,0.00,VWS V14.01,2013-07-07 10:11:00,
2013-07-07 05:16:00,73.1,63.2,29.93,SSE,167,0.0,0.0,71,0.00,,CLR,0.00,0.00,VWS V14.01,2013-07-07 10:16:00,
2013-07-07 05:21:00,73.1,63.2,29.93,SSE,167,0.0,0.0,71,0.00,,CLR,0.00,0.00,VWS V14.01,2013-07-07 10:21:00,
2013-07-07 05:26:00,73.1,63.2,29.93,SSE,167,0.0,0.0,71,0.00,,CLR,0.00,0.00,VWS V14.01,2013-07-07 10:26:00,
2013-07-07 05:31:00,73.1,63.5,29.93,SSE,167,0.0,0.0,72,0.00,,CLR,0.00,0.00,VWS V14.01,2013-07-07 10:31:00,
2013-07-07 05:36:00,73.1,63.5,29.93,SSE,166,0.0,0.0,72,0.00,,CLR,0.00,0.00,VWS V14.01,2013-07-07 10:36:00,
2013-07-07 05:41:00,73.1,63.5,29.93,SSE,166,0.0,0.0,72,0.00,,CLR,0.00,0.00,VWS V14.01,2013-07-07 10:41:00,
2013-07-07 05:46:00,73.1,63.5,29.93,SSE,166,0.0,0.0,72,0.00,,CLR,0.00,0.00,VWS V14.01,2013-07-07 10:46:00,
2013-07-07 05:51:00,72.9,63.3,29.93,SSE,165,0.0,0.0,72,0.00,,CLR,0.00,0.00,VWS V14.01,2013-07-07 10:51:00,
2013-07-07 05:56:00,72.9,63.8,29.93,SSE,163,0.0,0.0,73,0.00,,CLR,0.00,0.00,VWS V14.01,2013-07-07 10:56:00,
2013-07-07 06:01:00,72.7,63.5,29.93,SSE,163,0.0,0.0,73,0.00,,CLR,0.00,0.00,VWS V14.01,2013-07-07 11:01:00,
2013-07-07 06:06:00,72.7,63.5,29.93,SSE,163,0.0,0.0,73,0.00,,CLR,0.00,0.00,VWS V14.01,2013-07-07 11:06:00,
2013-07-07 06:11:00,72.5,63.4,29.93,SSE,164,0.0,0.0,73,0.00,,CLR,0.00,0.00,VWS V14.01,2013-07-07 11:11:00,
2013-07-07 06:16:00,72.5,63.4,29.94,SSE,164,0.0,1.0,73,0.00,,CLR,0.00,0.00,VWS V14.01,2013-07-07 11:16:00,
2013-07-07 06:21:00,72.5,63.8,29.94,SSE,165,0.0,0.0,74,0.00,,CLR,0.00,8.05,VWS V14.01,2013-07-07 11:21:00,
2013-07-07 06:26:00,72.5,63.8,29.94,SSE,166,0.0,0.0,74,0.00,,CLR,0.00,12.65,VWS V14.01,2013-07-07 11:26:00,
2013-07-07 06:31:00,72.4,63.7,29.94,SSE,168,0.0,0.0,74,0.00,,CLR,0.00,16.10,VWS V14.01,2013-07-07 11:31:00,
2013-07-07 06:36:00,72.4,63.7,29.94,SSE,168,0.0,0.0,74,0.00,,CLR,0.00,21.85,VWS V14.01,2013-07-07 11:36:00,
2013-07-07 06:41:00,72.4,63.7,29.94,SSE,168,0.0,0.0,74,0.00,,CLR,0.00,26.45,VWS V14.01,2013-07-07 11:41:00,
2013-07-07 06:46:00,72.4,64.0,29.95,South,169,0.0,0.0,75,0.00,,CLR,0.00,29.90,VWS V14.01,2013-07-07 11:46:00,
2013-07-07 06:51:00,72.4,64.0,29.95,South,169,0.0,0.0,75,0.00,,CLR,0.00,34.50,VWS V14.01,2013-07-07 11:51:00,
2013-07-07 06:56:00,72.4,64.0,29.95,South,169,0.0,0.0,75,0.00,,CLR,0.00,37.95,VWS V14.01,2013-07-07 11:56:00,
2013-07-07 07:01:00,72.4,64.0,29.96,South,169,1.0,1.0,75,0.00,,CLR,0.00,37.95,VWS V14.01,2013-07-07 12:01:00,
2013-07-07 07:06:00,72.4,64.0,29.96,South,169,0.0,0.0,75,0.00,,CLR,0.00,44.85,VWS V14.01,2013-07-07 12:06:00,
2013-07-07 07:11:00,72.4,64.4,29.96,South,169,0.0,0.0,76,0.00,,CLR,0.00,50.60,VWS V14.01,2013-07-07 12:11:00,
2013-07-07 07:16:00,72.4,64.4,29.96,South,169,0.0,0.0,76,0.00,,CLR,0.00,50.60,VWS V14.01,2013-07-07 12:16:00,
2013-07-07 07:21:00,72.2,64.2,29.96,South,169,0.0,0.0,76,0.00,,CLR,0.00,52.90,VWS V14.01,2013-07-07 12:21:00,
2013-07-07 07:26:00,72.2,64.2,29.96,South,169,0.0,0.0,76,0.00,,CLR,0.00,60.95,VWS V14.01,2013-07-07 12:26:00,
2013-07-07 07:31:00,72.2,64.2,29.96,South,169,0.0,0.0,76,0.00,,CLR,0.00,71.30,VWS V14.01,2013-07-07 12:31:00,
2013-07-07 07:36:00,72.4,64.8,29.96,South,169,0.0,0.0,77,0.00,,CLR,0.00,77.05,VWS V14.01,2013-07-07 12:36:00,
2013-07-07 07:41:00,72.4,64.8,29.96,South,169,0.0,0.0,77,0.00,,CLR,0.00,82.80,VWS V14.01,2013-07-07 12:41:00,
2013-07-07 07:46:00,72.4,64.8,29.97,South,169,0.0,0.0,77,0.00,,CLR,0.00,95.45,VWS V14.01,2013-07-07 12:46:00,
2013-07-07 07:51:00,72.4,64.8,29.97,South,169,0.0,0.0,77,0.00,,CLR,0.00,93.15,VWS V14.01,2013-07-07 12:51:00,
2013-07-07 07:56:00,72.4,64.8,29.97,South,169,0.0,0.0,77,0.00,,CLR,0.00,98.90,VWS V14.01,2013-07-07 12:56:00,
2013-07-07 08:01:00,72.5,64.9,29.98,South,169,0.0,0.0,77,0.00,,CLR,0.00,115.00,VWS V14.01,2013-07-07 13:01:00,
2013-07-07 08:06:00,72.5,64.9,29.98,South,169,0.0,0.0,77,0.00,,CLR,0.00,120.75,VWS V14.01,2013-07-07 13:06:00,
2013-07-07 08:11:00,72.7,65.1,29.98,South,169,0.0,0.0,77,0.00,,CLR,0.00,135.70,VWS V14.01,2013-07-07 13:11:00,
2013-07-07 08:16:00,73.2,65.6,29.99,South,169,0.0,0.0,77,0.00,,CLR,0.00,165.60,VWS V14.01,2013-07-07 13:16:00,
2013-07-07 08:21:00,73.6,65.6,29.99,South,169,0.0,0.0,76,0.00,,CLR,0.00,189.75,VWS V14.01,2013-07-07 13:21:00,
2013-07-07 08:26:00,73.9,65.9,29.99,South,169,0.0,0.0,76,0.00,,CLR,0.00,218.50,VWS V14.01,2013-07-07 13:26:00,
2013-07-07 08:31:00,74.1,65.7,29.99,South,169,0.0,0.0,75,0.00,,CLR,0.00,210.45,VWS V14.01,2013-07-07 13:31:00,
2013-07-07 08:36:00,74.5,66.1,29.99,South,171,0.0,0.0,75,0.00,,CLR,0.00,189.75,VWS V14.01,2013-07-07 13:36:00,
2013-07-07 08:41:00,74.6,65.8,29.99,South,169,0.0,0.0,74,0.00,,CLR,0.00,197.80,VWS V14.01,2013-07-07 13:41:00,
2013-07-07 08:46:00,74.8,66.0,29.99,South,169,0.0,3.0,74,0.00,,CLR,0.00,205.85,VWS V14.01,2013-07-07 13:46:00,
2013-07-07 08:51:00,75.2,66.3,29.99,South,170,0.0,0.0,74,0.00,,CLR,0.00,282.90,VWS V14.01,2013-07-07 13:51:00,
2013-07-07 08:56:00,76.1,66.4,29.99,South,174,0.0,0.0,72,0.00,,CLR,0.00,405.95,VWS V14.01,2013-07-07 13:56:00,
2013-07-07 09:01:00,76.8,67.1,29.99,South,175,0.0,0.0,72,0.00,,CLR,0.00,466.90,VWS V14.01,2013-07-07 14:01:00,
2013-07-07 09:06:00,77.5,66.9,29.99,South,169,3.0,6.0,70,0.00,,CLR,0.00,412.85,VWS V14.01,2013-07-07 14:06:00,
2013-07-07 09:11:00,77.9,66.9,29.99,SSE,167,11.0,11.0,69,0.00,,CLR,0.00,357.65,VWS V14.01,2013-07-07 14:11:00,
2013-07-07 09:16:00,77.7,66.7,29.99,South,175,0.0,0.0,69,0.00,,CLR,0.00,386.40,VWS V14.01,2013-07-07 14:16:00,
2013-07-07 09:21:00,78.1,67.1,29.99,South,173,4.0,5.0,69,0.00,,CLR,0.00,453.10,VWS V14.01,2013-07-07 14:21:00,
2013-07-07 09:26:00,78.6,67.2,29.99,SSW,198,0.0,2.0,68,0.00,,CLR,0.00,495.65,VWS V14.01,2013-07-07 14:26:00,
2013-07-07 09:31:00,78.8,66.9,30.00,South,188,0.0,0.0,67,0.00,,CLR,0.00,496.80,VWS V14.01,2013-07-07 14:31:00,
2013-07-07 09:36:00,79.6,67.2,30.00,South,184,0.0,4.0,66,0.00,,CLR,0.00,461.15,VWS V14.01,2013-07-07 14:36:00,
2013-07-07 09:41:00,79.7,66.9,30.00,SSW,192,3.0,10.0,65,0.00,,CLR,0.00,543.95,VWS V14.01,2013-07-07 14:41:00,
2013-07-07 09:46:00,80.1,67.3,30.00,SSW,193,0.0,4.0,65,0.00,,CLR,0.00,539.35,VWS V14.01,2013-07-07 14:46:00,
2013-07-07 09:51:00,80.5,67.2,30.00,SSW,202,5.0,7.0,64,0.00,,CLR,0.00,539.35,VWS V14.01,2013-07-07 14:51:00,
2013-07-07 09:56:00,80.7,67.4,30.00,SSW,200,3.0,7.0,64,0.00,,CLR,0.00,560.05,VWS V14.01,2013-07-07 14:56:00,
2013-07-07 10:01:00,81.3,67.5,30.00,SSE,159,8.0,11.0,63,0.00,,CLR,0.00,600.30,VWS V14.01,2013-07-07 15:01:00,
2013-07-07 10:06:00,81.1,67.3,30.00,SSW,197,8.0,11.0,63,0.00,,CLR,0.00,586.50,VWS V14.01,2013-07-07 15:06:00,
2013-07-07 10:11:00,81.5,67.7,30.00,South,182,5.0,5.0,63,0.00,,CLR,0.00,677.35,VWS V14.01,2013-07-07 15:11:00,
2013-07-07 10:16:00,81.9,67.6,30.00,SW,216,5.0,5.0,62,0.00,,CLR,0.00,683.10,VWS V14.01,2013-07-07 15:16:00,
2013-07-07 10:21:00,82.1,67.3,30.00,South,179,10.0,11.0,61,0.00,,CLR,0.00,442.75,VWS V14.01,2013-07-07 15:21:00,
2013-07-07 10:26:00,82.6,67.8,30.00,SSW,194,9.0,9.0,61,0.00,,CLR,0.00,701.50,VWS V14.01,2013-07-07 15:26:00,
2013-07-07 10:31:00,82.6,67.8,29.99,SSW,212,2.0,8.0,61,0.00,,CLR,0.00,741.75,VWS V14.01,2013-07-07 15:31:00,
2013-07-07 10:36:00,83.2,67.9,29.99,South,191,0.0,0.0,60,0.00,,CLR,0.00,754.40,VWS V14.01,2013-07-07 15:36:00,
2013-07-07 10:41:00,83.6,68.3,29.99,SW,226,7.0,7.0,60,0.00,,CLR,0.00,770.50,VWS V14.01,2013-07-07 15:41:00,
2013-07-07 10:46:00,83.8,68.0,29.99,SW,220,7.0,7.0,59,0.00,,CLR,0.00,780.85,VWS V14.01,2013-07-07 15:46:00,
2013-07-07 10:51:00,84.8,67.9,29.99,South,177,5.0,5.0,57,0.00,,CLR,0.00,788.90,VWS V14.01,2013-07-07 15:51:00,
2013-07-07 10:56:00,85.2,68.3,29.99,SSW,209,7.0,7.0,57,0.00,,CLR,0.00,798.10,VWS V14.01,2013-07-07 15:56:00,
2013-07-07 11:01:00,85.5,69.1,29.99,South,175,6.0,6.0,58,0.00,,CLR,0.00,814.20,VWS V14.01,2013-07-07 16:01:00,
2013-07-07 11:06:00,85.9,68.4,29.99,South,185,0.0,4.0,56,0.00,,CLR,0.00,824.55,VWS V14.01,2013-07-07 16:06:00,
2013-07-07 11:11:00,86.5,67.9,29.99,SW,219,7.0,7.0,54,0.00,,CLR,0.00,837.20,VWS V14.01,2013-07-07 16:11:00,
2013-07-07 11:16:00,86.9,67.7,29.98,SSW,207,2.0,2.0,53,0.00,,CLR,0.00,840.65,VWS V14.01,2013-07-07 16:16:00,
2013-07-07 11:21:00,86.5,67.9,29.98,South,169,11.0,11.0,54,0.00,,CLR,0.00,851.00,VWS V14.01,2013-07-07 16:21:00,
2013-07-07 11:26:00,87.1,68.4,29.98,South,173,4.0,5.0,54,0.00,,CLR,0.00,855.60,VWS V14.01,2013-07-07 16:26:00,
2013-07-07 11:31:00,87.8,68.6,29.98,SSE,165,0.0,7.0,53,0.00,,CLR,0.00,871.70,VWS V14.01,2013-07-07 16:31:00,
2013-07-07 11:36:00,87.5,68.8,29.98,South,176,6.0,6.0,54,0.00,,CLR,0.00,879.75,VWS V14.01,2013-07-07 16:36:00,
2013-07-07 11:41:00,87.5,68.3,29.98,South,178,0.0,17.0,53,0.00,,CLR,0.00,887.80,VWS V14.01,2013-07-07 16:41:00,
2013-07-07 11:46:00,87.5,68.3,29.98,South,188,3.0,13.0,53,0.00,,CLR,0.00,899.30,VWS V14.01,2013-07-07 16:46:00,
2013-07-07 11:51:00,88.2,68.9,29.98,South,172,3.0,3.0,53,0.00,,CLR,0.00,911.95,VWS V14.01,2013-07-07 16:51:00,
2013-07-07 11:56:00,88.4,68.0,29.98,SW,216,0.0,12.0,51,0.00,,CLR,0.00,907.35,VWS V14.01,2013-07-07 16:56:00,
2013-07-07 12:01:00,88.8,68.4,29.98,SSW,211,7.0,12.0,51,0.00,,CLR,0.00,922.30,VWS V14.01,2013-07-07 17:01:00,
2013-07-07 12:06:00,88.4,68.6,29.98,South,180,0.0,11.0,52,0.00,,CLR,0.00,928.05,VWS V14.01,2013-07-07 17:06:00,
2013-07-07 12:11:00,88.6,68.7,29.98,SW,224,11.0,13.0,52,0.00,,CLR,0.00,925.75,VWS V14.01,2013-07-07 17:11:00,
2013-07-07 12:16:00,89.0,68.5,29.98,SSE,152,5.0,12.0,51,0.00,,CLR,0.00,938.40,VWS V14.01,2013-07-07 17:16:00,
2013-07-07 12:21:00,89.0,68.0,29.98,SSW,205,0.0,12.0,50,0.00,,CLR,0.00,946.45,VWS V14.01,2013-07-07 17:21:00,
2013-07-07 12:26:00,89.2,68.2,29.98,SSW,202,6.0,16.0,50,0.00,,CLR,0.00,954.50,VWS V14.01,2013-07-07 17:26:00,
2013-07-07 12:31:00,89.7,68.6,29.98,SSE,151,1.0,10.0,50,0.00,,CLR,0.00,962.55,VWS V14.01,2013-07-07 17:31:00,
2013-07-07 12:36:00,89.7,68.0,29.98,SW,234,0.0,12.0,49,0.00,,CLR,0.00,970.60,VWS V14.01,2013-07-07 17:36:00,
2013-07-07 12:41:00,90.6,68.2,29.98,SSE,165,10.0,13.0,48,0.00,,CLR,0.00,980.95,VWS V14.01,2013-07-07 17:41:00,
2013-07-07 12:46:00,90.6,69.4,29.98,SSE,163,0.0,11.0,50,0.00,,CLR,0.00,960.25,VWS V14.01,2013-07-07 17:46:00,
2013-07-07 12:51:00,90.8,68.4,29.98,SW,216,1.0,12.0,48,0.00,,CLR,0.00,994.75,VWS V14.01,2013-07-07 17:51:00,
2013-07-07 12:56:00,90.8,67.2,29.98,South,169,0.0,10.0,46,0.00,,CLR,0.00,1000.50,VWS V14.01,2013-07-07 17:56:00,
2013-07-07 13:01:00,90.8,67.2,29.98,SW,216,0.0,11.0,46,0.00,,CLR,0.00,1006.25,VWS V14.01,2013-07-07 18:01:00,
2013-07-07 13:05:00,91.2,68.8,29.98,South,169,0.0,9.0,48,0.00,,CLR,0.00,1006.25,VWS V14.01,2013-07-07 18:05:00,
2013-07-07 13:11:00,91.4,67.7,29.98,SSW,201,0.0,14.0,46,0.00,,CLR,0.00,1000.50,VWS V14.01,2013-07-07 18:11:00,
2013-07-07 13:16:00,91.7,66.7,29.97,South,184,1.0,11.0,44,0.00,,CLR,0.00,1002.80,VWS V14.01,2013-07-07 18:16:00,
2013-07-07 13:20:00,91.4,67.1,29.97,South,184,7.0,11.0,45,0.00,,CLR,0.00,994.75,VWS V14.01,2013-07-07 18:20:00,
2013-07-07 13:25:00,91.9,68.2,29.97,SSW,204,2.0,9.0,46,0.00,,CLR,0.00,994.75,VWS V14.01,2013-07-07 18:25:00,
2013-07-07 13:30:00,92.1,68.4,29.97,South,169,0.0,11.0,46,0.00,,CLR,0.00,990.15,VWS V14.01,2013-07-07 18:30:00,
2013-07-07 13:35:00,92.1,67.1,29.97,SE,143,0.0,10.0,44,0.00,,CLR,0.00,982.10,VWS V14.01,2013-07-07 18:35:00,
2013-07-07 13:40:00,92.3,67.2,29.97,SSE,161,0.0,9.0,44,0.00,,CLR,0.00,984.40,VWS V14.01,2013-07-07 18:40:00,
2013-07-07 13:45:00,93.0,67.9,29.97,SSE,167,3.0,12.0,44,0.00,,CLR,0.00,984.40,VWS V14.01,2013-07-07 18:45:00,
2013-07-07 13:50:00,92.8,67.7,29.97,SSW,209,4.0,10.0,44,0.00,,CLR,0.00,982.10,VWS V14.01,2013-07-07 18:50:00,
2013-07-07 13:55:00,91.9,66.9,29.97,South,175,7.0,11.0,44,0.00,,CLR,0.00,976.35,VWS V14.01,2013-07-07 18:55:00,
2013-07-07 14:00:00,93.0,66.5,29.96,South,188,0.0,12.0,42,0.00,,CLR,0.00,962.55,VWS V14.01,2013-07-07 19:00:00,
2013-07-07 14:05:00,93.2,66.7,29.96,South,169,1.0,18.0,42,0.00,,CLR,0.00,957.95,VWS V14.01,2013-07-07 19:05:00,
2013-07-07 14:10:00,93.2,66.7,29.96,SSE,165,5.0,10.0,42,0.00,,CLR,0.00,963.70,VWS V14.01,2013-07-07 19:10:00,
2013-07-07 14:15:00,92.8,67.0,29.96,ESE,121,7.0,13.0,43,0.00,,CLR,0.00,938.40,VWS V14.01,2013-07-07 19:15:00,
2013-07-07 14:20:00,92.1,67.1,29.96,WSW,248,2.0,9.0,44,0.00,,CLR,0.00,946.45,VWS V14.01,2013-07-07 19:20:00,
2013-07-07 14:25:00,92.5,67.4,29.96,SSW,193,6.0,14.0,44,0.00,,CLR,0.00,944.15,VWS V14.01,2013-07-07 19:25:00,
2013-07-07 14:30:00,93.0,67.9,29.96,SSW,192,0.0,7.0,44,0.00,,CLR,0.00,880.90,VWS V14.01,2013-07-07 19:30:00,
2013-07-07 14:35:00,93.4,67.6,29.96,South,180,12.0,12.0,43,0.00,,CLR,0.00,970.60,VWS V14.01,2013-07-07 19:35:00,
2013-07-07 14:40:00,93.4,66.9,29.96,SW,215,4.0,11.0,42,0.00,,CLR,0.00,704.95,VWS V14.01,2013-07-07 19:40:00,
2013-07-07 14:45:00,93.0,66.5,29.96,South,171,1.0,14.0,42,0.00,,CLR,0.00,925.75,VWS V14.01,2013-07-07 19:45:00,
2013-07-07 14:50:00,93.9,67.3,29.96,South,184,0.0,14.0,42,0.00,,CLR,0.00,923.45,VWS V14.01,2013-07-07 19:50:00,
2013-07-07 14:55:00,94.1,66.8,29.96,South,180,0.0,13.0,41,0.00,,CLR,0.00,901.60,VWS V14.01,2013-07-07 19:55:00,
2013-07-07 15:00:00,93.6,66.4,29.96,South,174,4.0,17.0,41,0.00,,CLR,0.00,893.55,VWS V14.01,2013-07-07 20:00:00,
2013-07-07 15:05:00,94.1,66.8,29.96,South,175,0.0,13.0,41,0.00,,CLR,0.00,880.90,VWS V14.01,2013-07-07 20:05:00,
2013-07-07 15:10:00,93.9,66.6,29.96,South,170,0.0,10.0,41,0.00,,CLR,0.00,864.80,VWS V14.01,2013-07-07 20:10:00,
2013-07-07 15:15:00,93.9,65.9,29.95,SSE,167,0.0,14.0,40,0.00,,CLR,0.00,864.80,VWS V14.01,2013-07-07 20:15:00,
2013-07-07 15:20:00,94.1,66.1,29.95,SSW,197,11.0,11.0,40,0.00,,CLR,0.00,838.35,VWS V14.01,2013-07-07 20:20:00,
2013-07-07 15:25:00,93.6,65.7,29.95,SSW,192,0.0,7.0,40,0.00,,CLR,0.00,848.70,VWS V14.01,2013-07-07 20:25:00,
2013-07-07 15:30:00,93.4,66.2,29.94,SE,136,0.0,7.0,41,0.00,,CLR,0.00,838.35,VWS V14.01,2013-07-07 20:30:00,
2013-07-07 15:35:00,93.2,66.0,29.94,SSE,158,10.0,14.0,41,0.00,,CLR,0.00,808.45,VWS V14.01,2013-07-07 20:35:00,
2013-07-07 15:40:00,93.4,64.8,29.94,SSE,157,6.0,12.0,39,0.00,,CLR,0.00,816.50,VWS V14.01,2013-07-07 20:40:00,
2013-07-07 15:45:00,93.9,65.9,29.94,South,173,9.0,9.0,40,0.00,,CLR,0.00,814.20,VWS V14.01,2013-07-07 20:45:00,
2013-07-07 15:50:00,93.9,65.2,29.94,South,185,12.0,12.0,39,0.00,,CLR,0.00,805.00,VWS V14.01,2013-07-07 20:50:00,
2013-07-07 15:55:00,94.4,67.1,29.94,South,174,15.0,15.0,41,0.00,,CLR,0.00,782.00,VWS V14.01,2013-07-07 20:55:00,
2013-07-07 16:00:00,93.6,66.4,29.94,South,179,7.0,12.0,41,0.00,,CLR,0.00,776.25,VWS V14.01,2013-07-07 21:00:00,
2013-07-07 16:05:00,93.2,65.3,29.94,SSW,198,4.0,12.0,40,0.00,,CLR,0.00,752.10,VWS V14.01,2013-07-07 21:05:00,
2013-07-07 16:10:00,93.0,66.5,29.94,SSW,195,0.0,13.0,42,0.00,,CLR,0.00,754.40,VWS V14.01,2013-07-07 21:10:00,
2013-07-07 16:15:00,93.2,65.3,29.93,SSW,199,6.0,11.0,40,0.00,,CLR,0.00,667.00,VWS V14.01,2013-07-07 21:15:00,
2013-07-07 16:20:00,93.0,65.1,29.93,SSE,154,7.0,15.0,40,0.00,,CLR,0.00,162.15,VWS V14.01,2013-07-07 21:20:00,
2013-07-07 16:25:00,93.0,65.1,29.93,SSE,156,2.0,11.0,40,0.00,,CLR,0.00,236.90,VWS V14.01,2013-07-07 21:25:00,
2013-07-07 16:30:00,92.8,64.2,29.93,South,178,3.0,9.0,39,0.00,,CLR,0.00,194.35,VWS V14.01,2013-07-07 21:30:00,
2013-07-07 16:35:00,93.2,63.8,29.93,SSW,194,5.0,13.0,38,0.00,,CLR,0.00,704.95,VWS V14.01,2013-07-07 21:35:00,
2013-07-07 16:40:00,93.2,64.6,29.93,SSW,194,12.0,15.0,39,0.00,,CLR,0.00,632.50,VWS V14.01,2013-07-07 21:40:00,
2013-07-07 16:45:00,93.0,63.7,29.93,SSE,153,0.0,12.0,38,0.00,,CLR,0.00,509.45,VWS V14.01,2013-07-07 21:45:00,
2013-07-07 16:50:00,93.2,63.8,29.93,SSE,166,6.0,14.0,38,0.00,,CLR,0.00,570.40,VWS V14.01,2013-07-07 21:50:00,
2013-07-07 16:55:00,93.0,63.7,29.93,South,189,10.0,18.0,38,0.00,,CLR,0.00,196.65,VWS V14.01,2013-07-07 21:55:00,
2013-07-07 17:00:00,92.8,63.5,29.93,SSE,159,2.0,13.0,38,0.00,,CLR,0.00,151.80,VWS V14.01,2013-07-07 22:00:00,
2013-07-07 17:05:00,93.0,62.9,29.93,South,173,1.0,9.0,37,0.00,,CLR,0.00,143.75,VWS V14.01,2013-07-07 22:05:00,
2013-07-07 17:10:00,92.8,63.5,29.93,SSE,153,1.0,10.0,38,0.00,,CLR,0.00,143.75,VWS V14.01,2013-07-07 22:10:00,
2013-07-07 17:15:00,93.2,60.7,29.93,SE,144,3.0,12.0,34,0.00,,CLR,0.00,135.70,VWS V14.01,2013-07-07 22:15:00,
2013-07-07 17:20:00,93.0,62.1,29.93,South,179,0.0,18.0,36,0.00,,CLR,0.00,138.00,VWS V14.01,2013-07-07 22:20:00,
2013-07-07 17:25:00,93.0,62.1,29.93,South,170,4.0,12.0,36,0.00,,CLR,0.00,141.45,VWS V14.01,2013-07-07 22:25:00,
2013-07-07 17:30:00,93.0,61.3,29.92,South,175,14.0,14.0,35,0.00,,CLR,0.00,106.95,VWS V14.01,2013-07-07 22:30:00,
2013-07-07 17:35:00,92.8,62.0,29.92,ESE,107,0.0,11.0,36,0.00,,CLR,0.00,173.65,VWS V14.01,2013-07-07 22:35:00,
2013-07-07 17:40:00,92.8,62.0,29.92,South,169,0.0,10.0,36,0.00,,CLR,0.00,129.95,VWS V14.01,2013-07-07 22:40:00,
2013-07-07 17:45:00,92.8,62.0,29.92,South,169,5.0,12.0,36,0.00,,CLR,0.00,186.30,VWS V14.01,2013-07-07 22:45:00,
2013-07-07 17:50:00,92.3,61.5,29.92,South,184,0.0,17.0,36,0.00,,CLR,0.00,208.15,VWS V14.01,2013-07-07 22:50:00,
2013-07-07 17:55:00,92.5,61.7,29.92,SSW,206,4.0,15.0,36,0.00,,CLR,0.00,151.80,VWS V14.01,2013-07-07 22:55:00,
2013-07-07 18:00:00,92.3,62.3,29.92,South,171,7.0,18.0,37,0.00,,CLR,0.00,146.05,VWS V14.01,2013-07-07 23:00:00,
2013-07-07 18:05:00,92.3,62.3,29.92,SSE,156,3.0,9.0,37,0.00,,CLR,0.00,392.15,VWS V14.01,2013-07-07 23:05:00,
2013-07-07 18:10:00,92.1,63.6,29.92,South,174,2.0,12.0,39,0.00,,CLR,0.00,279.45,VWS V14.01,2013-07-07 23:10:00,
2013-07-07 18:15:00,92.1,64.3,29.91,South,178,3.0,14.0,40,0.00,,CLR,0.00,90.85,VWS V14.01,2013-07-07 23:15:00,
2013-07-07 18:20:00,92.1,64.3,29.91,South,174,0.0,15.0,40,0.00,,CLR,0.00,109.25,VWS V14.01,2013-07-07 23:20:00,
2013-07-07 18:25:00,91.9,62.7,29.91,SW,215,1.0,14.0,38,0.00,,CLR,0.00,103.50,VWS V14.01,2013-07-07 23:25:00,
2013-07-07 18:30:00,91.9,63.4,29.91,SSW,205,7.0,14.0,39,0.00,,CLR,0.00,80.50,VWS V14.01,2013-07-07 23:30:00,
2013-07-07 18:35:00,91.9,64.2,29.91,SSE,161,0.0,13.0,40,0.00,,CLR,0.00,88.55,VWS V14.01,2013-07-07 23:35:00,
2013-07-07 18:40:00,91.7,64.0,29.91,South,189,0.0,13.0,40,0.00,,CLR,0.00,71.30,VWS V14.01,2013-07-07 23:40:00,
2013-07-07 18:45:00,91.7,64.0,29.91,SSE,166,0.0,11.0,40,0.00,,CLR,0.00,58.65,VWS V14.01,2013-07-07 23:45:00,
2013-07-07 18:50:00,91.4,63.7,29.91,South,171,9.0,11.0,40,0.00,,CLR,0.00,52.90,VWS V14.01,2013-07-07 23:50:00,
2013-07-07 18:55:00,91.2,64.2,29.91,South,178,4.0,10.0,41,0.00,,CLR,0.00,48.30,VWS V14.01,2013-07-07 23:55:00,
2013-07-07 19:00:00,91.0,64.1,29.91,SSE,163,0.0,0.0,41,0.00,,CLR,0.00,62.10,VWS V14.01,2013-07-08 00:00:00,
2013-07-07 19:05:00,91.0,64.7,29.91,SSE,167,0.0,6.0,42,0.00,,CLR,0.00,58.65,VWS V14.01,2013-07-08 00:05:00,
2013-07-07 19:10:00,90.8,64.6,29.91,South,184,0.0,11.0,42,0.00,,CLR,0.00,82.80,VWS V14.01,2013-07-08 00:10:00,
2013-07-07 19:15:00,90.6,65.1,29.91,SSE,163,10.0,11.0,43,0.00,,CLR,0.00,58.65,VWS V14.01,2013-07-08 00:15:00,
2013-07-07 19:20:00,90.6,65.1,29.91,South,171,0.0,6.0,43,0.00,,CLR,0.00,72.45,VWS V14.01,2013-07-08 00:20:00,
2013-07-07 19:25:00,90.6,65.1,29.91,South,170,0.0,9.0,43,0.00,,CLR,0.00,48.30,VWS V14.01,2013-07-08 00:25:00,
2013-07-07 19:30:00,90.3,64.8,29.92,South,188,0.0,3.0,43,0.00,,CLR,0.00,40.25,VWS V14.01,2013-07-08 00:30:00,
2013-07-07 19:35:00,90.1,65.3,29.92,South,171,5.0,6.0,44,0.00,,CLR,0.00,36.80,VWS V14.01,2013-07-08 00:35:00,
2013-07-07 19:40:00,90.1,65.3,29.92,SSW,211,0.0,5.0,44,0.00,,CLR,0.00,37.95,VWS V14.01,2013-07-08 00:40:00,
2013-07-07 19:45:00,90.1,65.3,29.92,SSW,202,0.0,0.0,44,0.00,,CLR,0.00,37.95,VWS V14.01,2013-07-08 00:45:00,
2013-07-07 19:50:00,89.9,65.7,29.92,SSW,200,0.0,3.0,45,0.00,,CLR,0.00,32.20,VWS V14.01,2013-07-08 00:50:00,
2013-07-07 19:55:00,89.9,65.7,29.92,SSW,201,0.0,0.0,45,0.00,,CLR,0.00,29.90,VWS V14.01,2013-07-08 00:55:00,
2013-07-07 20:00:00,89.7,65.6,29.92,WSW,257,0.0,0.0,45,0.00,,CLR,0.00,26.45,VWS V14.01,2013-07-08 01:00:00,
2013-07-07 20:05:00,89.5,65.4,29.92,South,190,0.0,3.0,45,0.00,,CLR,0.00,24.15,VWS V14.01,2013-07-08 01:05:00,
2013-07-07 20:10:00,89.5,66.0,29.92,South,181,0.0,0.0,46,0.00,,CLR,0.00,20.70,VWS V14.01,2013-07-08 01:10:00,
2013-07-07 20:15:00,89.2,65.7,29.93,South,188,0.0,1.0,46,0.00,,CLR,0.00,18.40,VWS V14.01,2013-07-08 01:15:00,
2013-07-07 20:20:00,89.0,65.6,29.93,South,188,0.0,0.0,46,0.00,,CLR,0.00,16.10,VWS V14.01,2013-07-08 01:20:00,
2013-07-07 20:25:00,89.0,66.2,29.93,South,188,0.0,2.0,47,0.00,,CLR,0.00,12.65,VWS V14.01,2013-07-08 01:25:00,
2013-07-07 20:30:00,88.8,66.0,29.93,South,169,0.0,0.0,47,0.00,,CLR,0.00,10.35,VWS V14.01,2013-07-08 01:30:00,
2013-07-07 20:35:00,88.6,65.8,29.93,SSW,200,0.0,1.0,47,0.00,,CLR,0.00,8.05,VWS V14.01,2013-07-08 01:35:00,
2013-07-07 20:40:00,88.4,65.6,29.93,SSW,195,0.0,3.0,47,0.00,,CLR,0.00,5.75,VWS V14.01,2013-07-08 01:40:00,
2013-07-07 20:45:00,88.4,66.2,29.93,South,190,0.0,0.0,48,0.00,,CLR,0.00,0.00,VWS V14.01,2013-07-08 01:45:00,
2013-07-07 20:50:00,88.2,65.4,29.93,South,188,0.0,2.0,47,0.00,,CLR,0.00,0.00,VWS V14.01,2013-07-08 01:50:00,
2013-07-07 20:55:00,88.0,65.9,29.93,South,188,0.0,0.0,48,0.00,,CLR,0.00,0.00,VWS V14.01,2013-07-08 01:55:00,
2013-07-07 21:00:00,87.8,65.7,29.93,South,184,0.0,3.0,48,0.00,,CLR,0.00,0.00,VWS V14.01,2013-07-08 02:00:00,
2013-07-07 21:05:00,87.5,66.0,29.93,South,184,0.0,0.0,49,0.00,,CLR,0.00,0.00,VWS V14.01,2013-07-08 02:05:00,
2013-07-07 21:10:00,87.3,66.4,29.93,South,181,0.0,0.0,50,0.00,,CLR,0.00,0.00,VWS V14.01,2013-07-08 02:10:00,
2013-07-07 21:15:00,87.1,66.2,29.94,South,181,0.0,0.0,50,0.00,,CLR,0.00,0.00,VWS V14.01,2013-07-08 02:15:00,
2013-07-07 21:20:00,86.9,66.6,29.94,South,181,0.0,0.0,51,0.00,,CLR,0.00,0.00,VWS V14.01,2013-07-08 02:20:00,
2013-07-07 21:25:00,86.7,66.4,29.94,South,181,0.0,0.0,51,0.00,,CLR,0.00,0.00,VWS V14.01,2013-07-08 02:25:00,
2013-07-07 21:30:00,86.5,66.8,29.94,South,181,0.0,0.0,52,0.00,,CLR,0.00,0.00,VWS V14.01,2013-07-08 02:30:00,
2013-07-07 21:35:00,86.1,66.4,29.94,South,181,0.0,0.0,52,0.00,,CLR,0.00,0.00,VWS V14.01,2013-07-08 02:35:00,
2013-07-07 21:40:00,85.9,66.2,29.94,South,181,0.0,0.0,52,0.00,,CLR,0.00,0.00,VWS V14.01,2013-07-08 02:40:00,
2013-07-07 21:45:00,85.9,66.8,29.94,South,181,0.0,0.0,53,0.00,,CLR,0.00,0.00,VWS V14.01,2013-07-08 02:45:00,
2013-07-07 21:50:00,85.5,66.4,29.94,South,181,0.0,0.0,53,0.00,,CLR,0.00,0.00,VWS V14.01,2013-07-08 02:50:00,
2013-07-07 21:55:00,85.2,66.7,29.94,South,181,0.0,0.0,54,0.00,,CLR,0.00,0.00,VWS V14.01,2013-07-08 02:55:00,
2013-07-07 22:00:00,85.0,67.0,29.96,South,181,0.0,0.0,55,0.00,,CLR,0.00,0.00,VWS V14.01,2013-07-08 03:00:00,
2013-07-07 22:05:00,84.8,66.8,29.96,South,181,0.0,0.0,55,0.00,,CLR,0.00,0.00,VWS V14.01,2013-07-08 03:05:00,
2013-07-07 22:10:00,84.6,66.7,29.96,South,181,0.0,0.0,55,0.00,,CLR,0.00,0.00,VWS V14.01,2013-07-08 03:10:00,
2013-07-07 22:15:00,84.4,67.0,29.96,South,181,0.0,0.0,56,0.00,,CLR,0.00,0.00,VWS V14.01,2013-07-08 03:15:00,
2013-07-07 22:20:00,84.2,66.8,29.96,South,181,0.0,0.0,56,0.00,,CLR,0.00,0.00,VWS V14.01,2013-07-08 03:20:00,
2013-07-07 22:25:00,84.0,67.1,29.96,South,181,0.0,0.0,57,0.00,,CLR,0.00,0.00,VWS V14.01,2013-07-08 03:25:00,
2013-07-07 22:30:00,84.0,67.1,29.96,South,181,0.0,0.0,57,0.00,,CLR,0.00,0.00,VWS V14.01,2013-07-08 03:30:00,
2013-07-07 22:35:00,83.8,67.0,29.96,South,181,0.0,0.0,57,0.00,,CLR,0.00,0.00,VWS V14.01,2013-07-08 03:35:00,
2013-07-07 22:40:00,83.6,67.3,29.96,South,181,0.0,0.0,58,0.00,,CLR,0.00,0.00,VWS V14.01,2013-07-08 03:40:00,
2013-07-07 22:45:00,83.4,67.1,29.97,South,181,0.0,0.0,58,0.00,,CLR,0.00,0.00,VWS V14.01,2013-07-08 03:45:00,
2013-07-07 22:50:00,83.2,67.4,29.97,South,181,0.0,0.0,59,0.00,,CLR,0.00,0.00,VWS V14.01,2013-07-08 03:50:00,
2013-07-07 22:55:00,83.0,67.2,29.97,South,181,0.0,0.0,59,0.00,,CLR,0.00,0.00,VWS V14.01,2013-07-08 03:55:00,
2013-07-07 23:00:00,82.8,67.5,29.97,South,181,0.0,0.0,60,0.00,,CLR,0.00,0.00,VWS V14.01,2013-07-08 04:00:00,
2013-07-07 23:01:00,82.8,67.5,29.97,South,181,0.0,0.0,60,0.00,,CLR,0.00,0.00,VWS V14.01,2013-07-08 04:01:00,
2013-07-07 23:06:00,82.6,67.3,29.97,South,181,0.0,0.0,60,0.00,,CLR,0.00,0.00,VWS V14.01,2013-07-08 04:06:00,
2013-07-07 23:11:00,82.5,67.2,29.97,South,181,0.0,0.0,60,0.00,,CLR,0.00,0.00,VWS V14.01,2013-07-08 04:11:00,
2013-07-07 23:16:00,82.3,67.0,29.97,South,181,0.0,0.0,60,0.00,,CLR,0.00,0.00,VWS V14.01,2013-07-08 04:16:00,
2013-07-07 23:21:00,82.3,67.0,29.97,South,181,0.0,0.0,60,0.00,,CLR,0.00,0.00,VWS V14.01,2013-07-08 04:21:00,
2013-07-07 23:26:00,82.1,67.3,29.97,South,181,0.0,0.0,61,0.00,,CLR,0.00,0.00,VWS V14.01,2013-07-08 04:26:00,
2013-07-07 23:31:00,81.9,67.1,29.97,South,181,0.0,0.0,61,0.00,,CLR,0.00,0.00,VWS V14.01,2013-07-08 04:31:00,
2013-07-07 23:36:00,81.7,66.9,29.97,South,181,0.0,0.0,61,0.00,,CLR,0.00,0.00,VWS V14.01,2013-07-08 04:36:00,
2013-07-07 23:41:00,81.7,66.9,29.97,South,181,0.0,0.0,61,0.00,,CLR,0.00,0.00,VWS V14.01,2013-07-08 04:41:00,
2013-07-07 23:46:00,81.5,66.8,29.97,South,181,0.0,0.0,61,0.00,,CLR,0.00,0.00,VWS V14.01,2013-07-08 04:46:00,
2013-07-07 23:51:00,81.3,66.6,29.97,South,181,0.0,0.0,61,0.00,,CLR,0.00,0.00,VWS V14.01,2013-07-08 04:51:00,
2013-07-07 23:56:00,81.1,66.9,29.97,South,181,0.0,0.0,62,0.00,,CLR,0.00,0.00,VWS V14.01,2013-07-08 04:56:00,